Regional Weather Roundup
Issued by NWS Little Rock, AR

Home | Current Version | Previous Version | Text Only | Print | Product List | Glossary On
Versions: 1 2 3 4 5 6 7 8 9 10 11 12 13 14 15 16 17 18 19 20 21 22 23 24 25 26 27 28 29 30 31 32 33 34 35 36 37 38 39 40 41 42 43 44 45 46 47 48 49 50
000
ASUS44 KLZK 251605
RWRLZK

WEATHER ROUNDUP FOR ARKANSAS
NATIONAL WEATHER SERVICE LITTLE ROCK AR
1100 AM CDT FRI JUL 25 2014

NOTE: "FAIR" INDICATES FEW OR NO CLOUDS BELOW 12,000 FEET WITH NO
SIGNIFICANT WEATHER AND/OR OBSTRUCTIONS TO VISIBILITY.

ARZ001-003-010-029-251700-
NORTHWEST ARKANSAS

CITY           SKY/WX    TMP DP  RH WIND       PRES   REMARKS
FAYETTEVILLE   MOSUNNY   79  70  74 S16       30.05S
FORT SMITH     PTSUNNY   84  71  65 S5        30.02F HX  89
HARRISON       SUNNY     79  69  71 S12       30.05F
BENTONVILLE    PTSUNNY   81  70  69 SW13G20   30.05S
ROGERS         MOSUNNY   82  68  62 SW15G21   30.05F HX  85
SILOAM SPGS    PTSUNNY   81  66  61 S16       30.05F
HIGHFILL       MOSUNNY   81  70  69 S15       30.04S
SPRINGDALE     PTSUNNY   81  70  69 SW15      30.06F
$$

ARZ004-005-016-251700-
NORTH CENTRAL ARKANSAS

CITY           SKY/WX    TMP DP  RH WIND       PRES   REMARKS
MTN HOME       SUNNY     78  65  63 S9G20     30.04F
$$

ARZ040-041-251700-
WEST CENTRAL ARKANSAS

CITY           SKY/WX    TMP DP  RH WIND       PRES   REMARKS
MENA           CLOUDY    81  72  74 CALM      30.08F
MOUNT IDA      MOSUNNY   80  70  71 VRB5      30.05F
$$

ARZ009-017-025-026-028-251700-
NORTHEAST ARKANSAS

CITY           SKY/WX    TMP DP  RH WIND       PRES   REMARKS
CORNING          N/A     77  63  61 CALM      30.08R
NEWPORT        MOSUNNY   78  64  61 S6        30.08S
NW BLYTHEVILLE MOSUNNY   81  64  57 VRB3      30.06S
$$

ARZ022-023-033-042-044-251700-
CENTRAL ARKANSAS

CITY           SKY/WX    TMP DP  RH WIND       PRES   REMARKS
LITTLE ROCK    MOSUNNY   79  61  53 SE6       30.06F
N LITTLE ROCK  MOSUNNY   78  63  59 S7        30.06F
JACKSONVILLE   SUNNY     79  65  61 S7        30.06F
SEARCY         SUNNY     80  65  60 VRB5      30.07F
HOT SPRINGS    PTSUNNY   78  65  63 S5        30.08F
RUSSELLVILLE   SUNNY     79  67  66 VRB5      30.05F
CLINTON        CLOUDY    79  64  61 S6        30.06F
$$

ARZ036-251700-
EAST ARKANSAS

CITY           SKY/WX    TMP DP  RH WIND       PRES   REMARKS
WEST MEMPHIS   SUNNY     78  62  57 CALM      30.05F
$$

ARZ050-053-066-070-073-251700-
SOUTHWEST ARKANSAS

CITY           SKY/WX    TMP DP  RH WIND       PRES   REMARKS
ARKADELPHIA    FAIR      82  68  62 CALM      30.07F HX  85
CAMDEN         SUNNY     82  64  54 S3        30.06F
TEXARKANA      CLOUDY    81  73  76 VRB3      30.07S HX  86
EL DORADO      MOSUNNY   81  68  64 VRB3      30.08S
DE QUEEN       PTSUNNY   80  73  79 S6        30.04F
$$

ARZ056-057-069-251700-
SOUTHEAST ARKANSAS

CITY           SKY/WX    TMP DP  RH WIND       PRES   REMARKS
PINE BLUFF     SUNNY     79  61  53 SW3       30.07F
STUTTGART      SUNNY     79  64  61 S6        30.07F
MONTICELLO     SUNNY     82  62  50 VRB3      30.07S

$$




USA.gov is the U.S. government's official web portal to all federal, state and local government web resources and services.